Tracking 25723 objects as of 27-Jun-2022
HD Live streaming from Space Station
objects crossing your sky now

STARLINK-1640

Track STARLINK-1640 now!
10-day predictions
STARLINK-1640 is classified as:


NORAD ID: 46173
Int'l Code: 2020-057BJ
Perigee: 553.2 km
Apogee: 555.5 km
Inclination: 53.1 °
Period: 95.6 minutes
Semi major axis: 6925 km
RCS: Unknown
Launch date: August 18, 2020
Source: United States (US)
Launch site: AIR FORCE EASTERN TEST RANGE (AFETR)
aabbcc
Your satellite tracking list
Your tracking list is empty




NASA's NSSDC Master Catalog

Two Line Element Set (TLE):
1 46173U 20057BJ  22177.55036761  .00002389  00000-0  17920-3 0  9991
2 46173  53.0528 266.6179 0001685  50.3257 309.7881 15.06399342102927
Source of the keplerian elements: AFSPC